China Lake, CA

2:08 AM PST on November 23, 2017 (GMT -0800)
China Lake NAWS

Weather History for KNID - December, 2012

Change the Weather History Date:

Monday, December 10, 2012

  Actual Average Record
Temperature  
Mean Temperature 47 °F -  
Max Temperature 64 °F 56 °F 73 °F (2015)
Min Temperature 30 °F 33 °F 14 °F (2013)
Degree Days  
Heating Degree Days 18    
Moisture  
Dew Point 18 °F    
Average Humidity 36    
Maximum Humidity 52    
Minimum Humidity 20    
Precipitation  
Precipitation 0.00 in - - ()
Sea Level Pressure  
Sea Level Pressure 30.20 in    
Wind  
Wind Speed 4 mph (South)    
Max Wind Speed 8 mph    
Max Gust Speed -    
Visibility 10 miles    
Events      
Averages and records for this station are not official NWS values.
T = Trace of Precipitation, MM = Missing Value Source: NWS Daily Summary

Daily Weather History Graph

Daily Weather History Graph

Search for Another Location

Airport or City:

Trip Planner

Search our weather history database for the weather conditions in past years. The results will help you decide how hot, cold, wet, or windy it might be!

Date:

Astronomy

Dec. 10, 2012 Rise Set
Actual Time 6:50 AM PST 4:37 PM PST
Civil Twilight 6:21 AM PST 5:05 PM PST
Nautical Twilight 5:49 AM PST 5:37 PM PST
Astronomical Twilight 5:18 AM PST 6:08 PM PST
Moon 3:42 AM PST (12/10) 2:27 PM PST (12/10)
Length of Visible Light 10h 44m
Length of Day
9h 47m
Waning Crescent, 9% of the Moon is Illuminated
Dec 10
Waning Crescent
Dec 13
New
Dec 19
First Quarter
Dec 28
Full
Jan 4
Last Quarter

Hourly Weather History & Observations

Time (PST) Temp. Windchill Dew Point Humidity Pressure Visibility Wind Dir Wind Speed Gust Speed Precip Events Conditions
12:56 AM 37.0 °F 31.6 °F 17.1 °F 44% 30.22 in 10.0 mi SSE 6.9 mph - N/A   Clear
1:56 AM 37.9 °F 32.1 °F 17.1 °F 43% 30.23 in 10.0 mi SSW 8.1 mph - N/A   Clear
2:56 AM 34.0 °F - 16.0 °F 48% 30.24 in 10.0 mi Calm Calm - N/A   Clear
3:56 AM 33.1 °F - 14.0 °F 46% 30.25 in 10.0 mi Calm Calm - N/A   Clear
4:56 AM 34.0 °F 31.0 °F 16.0 °F 48% 30.25 in 10.0 mi SW 3.5 mph - N/A   Clear
5:56 AM 34.0 °F 27.2 °F 17.1 °F 50% 30.24 in 10.0 mi SSW 8.1 mph - N/A   Clear
6:56 AM 30.9 °F - 15.1 °F 52% 30.26 in 10.0 mi Calm Calm - N/A   Clear
7:56 AM 33.1 °F - 14.0 °F 46% 30.29 in 10.0 mi Calm Calm - N/A   Clear
8:56 AM 43.0 °F - 18.0 °F 37% 30.27 in 10.0 mi Calm Calm - N/A   Clear
9:56 AM 51.1 °F - 21.0 °F 31% 30.29 in 10.0 mi Calm Calm - N/A   Clear
10:56 AM 55.9 °F - 21.0 °F 26% 30.27 in 10.0 mi Calm Calm - N/A   Clear
11:56 AM 60.1 °F - 21.0 °F 22% 30.22 in 10.0 mi Calm Calm - N/A   Clear
12:56 PM 61.0 °F - 21.9 °F 22% 30.18 in 10.0 mi Calm Calm - N/A   Clear
1:56 PM 63.0 °F - 21.9 °F 21% 30.16 in 10.0 mi Calm Calm - N/A   Clear
2:56 PM 64.0 °F - 23.0 °F 21% 30.15 in 10.0 mi East 3.5 mph - N/A   Partly Cloudy
3:56 PM 64.0 °F - 21.9 °F 20% 30.14 in 10.0 mi NE 3.5 mph - N/A   Partly Cloudy
4:56 PM 57.0 °F - 21.0 °F 25% 30.14 in 10.0 mi NE 3.5 mph - N/A   Scattered Clouds
5:56 PM 48.9 °F - 18.0 °F 29% 30.14 in 10.0 mi SSW 4.6 mph - N/A   Scattered Clouds
6:56 PM 45.0 °F 42.6 °F 18.0 °F 34% 30.16 in 10.0 mi SW 4.6 mph - N/A   Clear
7:56 PM 41.0 °F 37.1 °F 16.0 °F 36% 30.16 in 10.0 mi WSW 5.8 mph - N/A   Clear
8:56 PM 42.1 °F 40.2 °F 17.1 °F 37% 30.14 in 10.0 mi South 3.5 mph - N/A   Clear
9:56 PM 39.9 °F 35.1 °F 17.1 °F 40% 30.14 in 10.0 mi SW 6.9 mph - N/A   Clear
10:56 PM 37.9 °F 32.7 °F 17.1 °F 43% 30.16 in 10.0 mi SSW 6.9 mph - N/A   Clear
11:56 PM 37.0 °F - 18.0 °F 46% 30.15 in 10.0 mi Calm Calm - N/A   Clear